EW5466 Weather Reports


Display with metric or nautical units.
time (UTC)temp
F
wind
direction
speed
MPH
gust
MPH
rain 1hr
in
rain 24hr
in
rain mn
in
humidity
%
barometer
mb
20181023182827 42 309 9.0 25.0 0.00 0.03 0.03 80 1017.3
20181023182327 42 322 8.0 23.0 0.00 0.03 0.03 82 1017.3
20181023181827 42 299 6.0 23.0 0.00 0.03 0.03 82 1017.3
20181023181326 42 304 8.0 17.0 0.00 0.03 0.03 82 1017.2
20181023180828 42 306 8.0 19.0 0.00 0.03 0.03 81 1017.2
20181023180323 42 318 7.0 19.0 0.00 0.03 0.03 82 1017.2
20181023175823 42 308 7.0 19.0 0.00 0.03 0.03 81 1017.1
20181023175323 42 321 6.0 19.0 0.00 0.03 0.03 81 1017.1
20181023174823 42 347 5.0 18.0 0.00 0.03 0.03 81 1017.1
20181023174322 42 312 9.0 23.0 0.00 0.03 0.03 80 1017.1
20181023173823 42 308 10.0 23.0 0.00 0.03 0.03 80 1017.1
20181023173323 43 303 7.0 22.0 0.00 0.03 0.03 80 1017.1
20181023172823 43 306 8.0 22.0 0.00 0.03 0.03 81 1016.9
20181023172322 43 303 10.0 24.0 0.00 0.03 0.03 80 1016.9
20181023171828 43 317 10.0 24.0 0.00 0.03 0.03 81 1016.9
20181023171323 43 315 10.0 21.0 0.00 0.03 0.03 81 1016.8
20181023170823 43 307 8.0 21.0 0.00 0.03 0.03 80 1016.8
20181023170323 43 309 7.0 21.0 0.00 0.03 0.03 81 1016.8
20181023165823 43 296 7.0 21.0 0.00 0.03 0.03 82 1016.7
20181023165322 43 310 6.0 17.0 0.00 0.03 0.03 82 1016.7
20181023164823 43 295 6.0 17.0 0.00 0.03 0.03 83 1016.7
20181023164323 43 296 7.0 18.0 0.00 0.03 0.03 82 1016.5
20181023163823 43 284 7.0 18.0 0.00 0.03 0.03 83 1016.5
20181023163323 43 307 6.0 22.0 0.00 0.03 0.03 83 1016.5
20181023162823 43 314 8.0 22.0 0.00 0.03 0.03 83 1016.2
20181023162323 43 294 9.0 22.0 0.00 0.03 0.03 82 1016.2
20181023161823 43 308 9.0 22.0 0.00 0.03 0.03 83 1016.2
20181023161323 43 318 8.0 24.0 0.00 0.03 0.03 82 1016.2
20181023160823 43 313 6.0 24.0 0.00 0.03 0.03 82 1016.2
20181023160323 43 303 6.0 24.0 0.00 0.03 0.03 84 1016.2
20181023155823 43 308 7.0 24.0 0.00 0.03 0.03 84 1015.9
20181023155323 43 290 9.0 23.0 0.00 0.03 0.03 85 1015.9
20181023154823 43 305 9.0 28.0 0.00 0.03 0.03 85 1015.9
20181023154323 44 295 9.0 28.0 0.00 0.03 0.03 85 1015.7
20181023153823 44 297 9.0 27.0 0.00 0.03 0.03 85 1015.7
20181023153333 43 308 9.0 27.0 0.00 0.03 0.03 86 1015.7
20181023152823 43 296 6.0 17.0 0.00 0.03 0.03 87 1015.5
20181023152323 43 279 5.0 17.0 0.00 0.03 0.03 87 1015.5
20181023151823 43 289 5.0 17.0 0.00 0.03 0.03 88 1015.5
20181023151323 43 300 5.0 13.0 0.00 0.03 0.03 88 1015.2
20181023150823 43 305 5.0 13.0 0.00 0.03 0.03 89 1015.2
20181023150322 43 288 4.0 13.0 0.00 0.03 0.03 88 1015.2
20181023145821 43 300 4.0 10.0 0.00 0.03 0.03 89 1015.1
20181023145321 43 304 4.0 10.0 0.00 0.03 0.03 89 1015.1
20181023144820 44 281 4.0 10.0 0.00 0.03 0.03 88 1015.1
20181023144321 44 311 5.0 21.0 0.00 0.03 0.03 88 1014.9
20181023143820 44 306 7.0 21.0 0.00 0.03 0.03 89 1014.9
20181023143321 44 311 8.0 24.0 0.00 0.03 0.03 89 1014.9
20181023142821 43 315 5.0 24.0 0.00 0.03 0.03 90 1014.7
20181023142320 43 297 2.0 11.0 0.00 0.03 0.03 90 1014.7
20181023141821 43 315 2.0 9.0 0.00 0.03 0.03 90 1014.7
20181023141321 43 310 3.0 10.0 0.00 0.03 0.03 91 1014.6
20181023140821 43 298 3.0 10.0 0.00 0.03 0.03 91 1014.6
20181023140320 43 294 4.0 10.0 0.00 0.03 0.03 91 1014.6
20181023135815 43 289 2.0 9.0 0.00 0.03 0.03 92 1014.4
20181023135315 43 300 0.0 9.0 0.00 0.03 0.03 91 1014.4
20181023134814 43 279 0.0 3.0 0.00 0.03 0.03 92 1014.4
20181023134313 43 281 0.0 3.0 0.00 0.03 0.03 92 1014.1
20181023133813 42 293 0.0 3.0 0.00 0.03 0.03 92 1014.1
20181023133312 42 293 1.0 10.0 0.00 0.03 0.03 92 1014.1
20181023132811 42 286 0.0 10.0 0.02 0.03 0.03 92 1014.0
20181023132310 42 281 0.0 2.0 0.03 0.03 0.03 92 1014.0
20181023131807 41 268 1.0 5.0 0.03 0.03 0.03 93 1014.0
20181023131307 41 275 1.0 5.0 0.03 0.03 0.03 93 1013.9
20181023130807 40 257 0.0 5.0 0.03 0.03 0.03 93 1013.9
20181023130302 40 260 0.0 2.0 0.03 0.03 0.03 92 1013.9
20181023125803 40 259 0.0 7.0 0.03 0.03 0.03 92 1013.7
20181023125302 40 259 0.0 7.0 0.03 0.03 0.03 92 1013.7
20181023124759 40 277 0.0 7.0 0.03 0.03 0.03 92 1013.7
20181023124259 39 275 0.0 7.0 0.03 0.03 0.03 92 1013.6
20181023123758 39 269 0.0 5.0 0.03 0.03 0.03 92 1013.6
20181023123259 39 277 0.0 4.0 0.03 0.03 0.03 93 1013.6
20181023122756 39 269 0.0 1.0 0.01 0.01 0.01 93 1013.5
20181023122255 38 250 0.0 1.0 0.00 0.00 0.00 92 1013.5
20181023121753 38 248 0.0 0.0 0.00 0.00 0.00 92 1013.5
20181023121253 38 247 0.0 0.0 0.00 0.00 0.00 92 1013.4
20181023120751 38 248 0.0 0.0 0.00 0.00 0.00 92 1013.4
20181023120253 37 244 0.0 0.0 0.00 0.00 0.00 91 1013.4
20181023115749 37 239 0.0 0.0 0.00 0.00 0.00 91 1013.0
20181023115248 37 239 0.0 0.0 0.00 0.00 0.00 91 1013.0
20181023114745 37 239 0.0 0.0 0.00 0.00 0.00 91 1013.0
20181023114243 37 239 0.0 0.0 0.00 0.00 0.00 91 1013.0
20181023113742 37 239 0.0 0.0 0.00 0.00 0.00 91 1013.0
20181023113241 37 233 0.0 0.0 0.00 0.00 0.00 91 1012.9
20181023112740 37 233 0.0 0.0 0.00 0.00 0.00 91 1012.9
20181023112241 37 228 0.0 2.0 0.00 0.00 0.00 90 1012.9
20181023111740 37 219 0.0 2.0 0.00 0.00 0.00 90 1012.9
20181023111239 37 210 0.0 1.0 0.00 0.00 0.00 89 1012.9
20181023110739 37 215 0.0 0.0 0.00 0.00 0.00 89 1012.9
20181023110237 37 226 0.0 0.0 0.00 0.00 0.00 89 1012.8
20181023105736 37 224 0.0 0.0 0.00 0.00 0.00 89 1012.8
20181023105237 37 230 0.0 0.0 0.00 0.00 0.00 90 1012.8
20181023104737 37 235 0.0 0.0 0.00 0.00 0.00 90 1012.9
20181023104237 37 238 0.0 0.0 0.00 0.00 0.00 89 1012.9
20181023103736 37 238 0.0 0.0 0.00 0.00 0.00 89 1012.9
20181023103235 37 196 0.0 0.0 0.00 0.00 0.00 89 1012.6
20181023102732 38 196 0.0 0.0 0.00 0.00 0.00 89 1012.6
20181023102232 38 196 0.0 0.0 0.00 0.00 0.00 88 1012.6
20181023101732 38 210 0.0 0.0 0.00 0.00 0.00 89 1012.8
20181023101230 38 219 0.0 0.0 0.00 0.00 0.00 89 1012.8
20181023100732 38 219 1.0 7.0 0.00 0.00 0.00 89 1012.8
20181023100224 38 220 1.0 7.0 0.00 0.00 0.00 88 1012.4
20181023095725 38 225 0.0 0.0 0.00 0.00 0.00 88 1012.4
20181023095218 38 68 0.0 4.0 0.00 0.00 0.00 89 1012.4
20181023094717 38 68 0.0 4.0 0.00 0.00 0.00 89 1012.5
20181023094215 37 77 0.0 3.0 0.00 0.00 0.00 88 1012.5
20181023093715 37 120 0.0 1.0 0.00 0.00 0.00 88 1012.5
20181023093214 37 132 0.0 0.0 0.00 0.00 0.00 87 1013.4
20181023092712 37 179 0.0 0.0 0.00 0.00 0.00 87 1013.4
20181023092210 37 193 0.0 0.0 0.00 0.00 0.00 87 1013.4
20181023091707 37 193 0.0 0.0 0.00 0.00 0.00 87 1013.3
20181023091206 37 193 0.0 0.0 0.00 0.00 0.00 86 1013.3
20181023090704 37 193 0.0 1.0 0.00 0.00 0.00 87 1013.3
20181023090203 37 193 0.0 1.0 0.00 0.00 0.00 86 1013.0
20181023085702 37 192 0.0 0.0 0.00 0.00 0.00 86 1013.0
20181023085201 37 191 0.0 0.0 0.00 0.00 0.00 86 1013.0
20181023084659 37 191 0.0 0.0 0.00 0.00 0.00 86 1013.3
20181023084159 37 196 0.0 0.0 0.00 0.00 0.00 86 1013.3
20181023083658 37 196 0.0 0.0 0.00 0.00 0.00 86 1013.3
20181023083159 36 194 0.0 0.0 0.00 0.00 0.00 86 1013.4
20181023082658 36 223 0.0 0.0 0.00 0.00 0.00 86 1013.4
20181023082158 36 219 0.0 0.0 0.00 0.00 0.00 85 1013.4
20181023081652 36 220 0.0 1.0 0.00 0.00 0.00 85 1013.1
20181023081153 36 195 0.0 1.0 0.00 0.00 0.00 85 1013.1
20181023080651 37 183 0.0 1.0 0.00 0.00 0.00 84 1013.1
20181023080151 37 185 0.0 0.0 0.00 0.00 0.00 84 1013.1
20181023075651 37 159 0.0 0.0 0.00 0.00 0.00 84 1013.1
20181023075150 37 169 0.0 0.0 0.00 0.00 0.00 84 1013.1
20181023074645 37 177 0.0 0.0 0.00 0.00 0.00 83 1013.2
20181023074143 37 171 0.0 0.0 0.00 0.00 0.00 82 1013.2
20181023073642 38 169 0.0 0.0 0.00 0.00 0.00 81 1013.2
20181023073140 38 156 0.0 0.0 0.00 0.00 0.00 82 1013.3
20181023072638 38 158 0.0 0.0 0.00 0.00 0.00 82 1013.3
20181023072135 38 159 0.0 0.0 0.00 0.00 0.00 82 1013.3
20181023071640 38 163 0.0 2.0 0.00 0.00 0.00 82 1013.2
20181023071134 38 159 0.0 2.0 0.00 0.00 0.00 81 1013.2
20181023070633 39 161 0.0 6.0 0.00 0.00 0.00 81 1013.2
20181023070132 39 156 0.0 6.0 0.00 0.00 0.00 81 1013.4
20181023065630 39 165 0.0 5.0 0.00 0.00 0.00 81 1013.4
20181023065129 39 158 0.0 5.0 0.00 0.00 0.00 81 1013.4
20181023064628 39 154 0.0 1.0 0.00 0.00 0.00 81 1013.5
20181023064128 39 157 0.0 1.0 0.00 0.00 0.00 82 1013.5
20181023063629 39 159 0.0 1.0 0.00 0.00 0.00 82 1013.5
20181023063129 39 156 0.0 0.0 0.00 0.00 0.00 82 1013.7
20181023062625 38 158 0.0 4.0 0.00 0.00 0.00 83 1013.7
20181023062137 38 159 0.0 4.0 0.00 0.00 0.00 83 1013.7
20181023061623 38 167 0.0 5.0 0.00 0.00 0.00 83 1013.7
20181023061123 38 159 0.0 5.0 0.00 0.00 0.00 83 1013.7
20181023060622 38 165 0.0 7.0 0.00 0.00 0.00 83 1013.7
20181023060123 38 171 0.0 7.0 0.00 0.00 0.00 83 1013.7
20181023055539 38 171 1.0 9.0 0.00 0.00 0.00 82 1013.7
20181023055039 38 152 1.0 9.0 0.00 0.00 0.00 83 1013.7
20181023054539 38 157 0.0 6.0 0.00 0.00 0.00 83 1013.9
20181023054039 37 148 0.0 7.0 0.00 0.00 0.00 83 1013.9
20181023053539 37 144 0.0 7.0 0.00 0.00 0.00 83 1013.9
20181023053039 37 142 0.0 7.0 0.00 0.00 0.00 83 1014.0
20181023052539 37 142 0.0 7.0 0.00 0.00 0.00 83 1014.0
20181023052039 37 151 0.0 0.0 0.00 0.00 0.00 83 1014.0
20181023051539 37 154 0.0 0.0 0.00 0.00 0.00 83 1014.0
20181023051042 37 140 0.0 0.0 0.00 0.00 0.00 83 1014.0
20181023050536 37 140 0.0 0.0 0.00 0.00 0.00 83 1014.0
20181023050031 37 138 0.0 1.0 0.00 0.00 0.00 83 1014.3
20181023045529 37 136 0.0 1.0 0.00 0.00 0.00 83 1014.3
20181023045027 37 136 0.0 1.0 0.00 0.00 0.00 82 1014.3
20181023044527 37 136 0.0 1.0 0.00 0.00 0.00 82 1014.6
20181023044025 37 135 0.0 0.0 0.00 0.00 0.00 81 1014.6
20181023043525 37 135 0.0 1.0 0.00 0.00 0.00 81 1014.6
20181023043024 37 140 0.0 1.0 0.00 0.00 0.00 81 1014.7
20181023042523 37 140 0.0 0.0 0.00 0.00 0.00 81 1014.7
20181023042021 37 146 0.0 2.0 0.00 0.00 0.00 81 1014.7
20181023041520 37 138 0.0 4.0 0.00 0.00 0.00 80 1015.0
20181023041019 37 138 0.0 4.0 0.00 0.00 0.00 80 1015.0
20181023040517 37 134 0.0 0.0 0.00 0.00 0.00 79 1015.0
20181023040014 37 138 0.0 6.0 0.00 0.00 0.00 79 1015.1
20181023035514 37 142 0.0 6.0 0.00 0.00 0.00 79 1015.1
20181023035014 37 136 0.0 3.0 0.00 0.00 0.00 78 1015.1
20181023034514 37 142 0.0 8.0 0.00 0.00 0.00 78 1015.3
20181023034013 37 148 0.0 8.0 0.00 0.00 0.00 78 1015.3
20181023033514 37 146 0.0 3.0 0.00 0.00 0.00 77 1015.3
20181023033013 37 155 0.0 3.0 0.00 0.00 0.00 77 1015.6
20181023032514 37 150 0.0 1.0 0.00 0.00 0.00 77 1015.6
20181023032014 37 144 0.0 1.0 0.00 0.00 0.00 77 1015.6
20181023031513 37 145 0.0 1.0 0.00 0.00 0.00 77 1015.7
20181023031014 37 145 0.0 6.0 0.00 0.00 0.00 77 1015.7
20181023030514 36 143 0.0 6.0 0.00 0.00 0.00 77 1015.7
20181023030013 36 134 0.0 4.0 0.00 0.00 0.00 78 1015.7
20181023025514 36 144 0.0 1.0 0.00 0.00 0.00 78 1015.7
20181023025013 35 147 0.0 2.0 0.00 0.00 0.00 79 1015.7
20181023024514 35 145 0.0 6.0 0.00 0.00 0.00 80 1015.8
20181023024014 35 150 0.0 6.0 0.00 0.00 0.00 81 1015.8
20181023023513 35 150 0.0 0.0 0.00 0.00 0.00 81 1015.8
20181023023014 35 144 0.0 0.0 0.00 0.00 0.00 82 1015.9
20181023022514 35 144 0.0 0.0 0.00 0.00 0.00 82 1015.9
20181023022013 35 144 0.0 0.0 0.00 0.00 0.00 82 1015.9
20181023021513 35 144 0.0 0.0 0.00 0.00 0.00 82 1016.0
20181023021014 35 144 0.0 0.0 0.00 0.00 0.00 82 1016.0
20181023020513 35 144 0.0 0.0 0.00 0.00 0.00 82 1016.0
20181023020013 35 144 0.0 0.0 0.00 0.00 0.00 82 1016.2
20181023015509 35 144 0.0 0.0 0.00 0.00 0.00 81 1016.2
20181023015009 35 144 0.0 0.0 0.00 0.00 0.00 81 1016.2
20181023014510 35 144 0.0 0.0 0.00 0.00 0.00 81 1016.2
20181023014009 36 144 0.0 0.0 0.00 0.00 0.00 80 1016.2
20181023013509 36 144 0.0 0.0 0.00 0.00 0.00 80 1016.2
20181023013010 36 144 0.0 0.0 0.00 0.00 0.00 80 1016.2
20181023012510 36 144 0.0 0.0 0.00 0.00 0.00 80 1016.2
20181023012009 36 144 0.0 0.0 0.00 0.00 0.00 80 1016.2
20181023011507 36 144 0.0 0.0 0.00 0.00 0.00 80 1016.2
20181023011008 36 144 0.0 0.0 0.00 0.00 0.00 80 1016.2
20181023010508 36 144 0.0 1.0 0.00 0.00 0.00 80 1016.2
20181023010007 36 144 0.0 1.0 0.00 0.00 0.00 80 1016.2
20181023005508 37 144 0.0 0.0 0.00 0.00 0.00 79 1016.2
20181023005008 37 150 0.0 0.0 0.00 0.00 0.00 79 1016.2
20181023004507 37 259 0.0 0.0 0.00 0.00 0.00 79 1016.1
20181023004008 37 259 0.0 0.0 0.00 0.00 0.00 78 1016.1
20181023003507 37 259 0.0 0.0 0.00 0.00 0.00 78 1016.1
20181023003008 38 259 0.0 0.0 0.00 0.00 0.00 77 1016.1
20181023002507 38 259 0.0 0.0 0.00 0.00 0.00 77 1016.1
20181023002012 38 259 0.0 0.0 0.00 0.00 0.00 77 1016.1
20181023002007 38 259 0.0 0.0 0.00 0.00 0.00 77 1016.1
20181023001007 39 259 0.0 0.0 0.00 0.00 0.00 76 1016.1
20181023000508 39 259 0.0 0.0 0.00 0.00 0.00 75 1016.1
20181023000007 39 259 0.0 0.0 0.00 0.00 0.00 74 1016.2
20181022235508 40 265 0.0 0.0 0.00 0.00 0.00 73 1016.2
20181022235007 40 265 0.0 0.0 0.00 0.00 0.00 72 1016.2
20181022234507 41 265 0.0 0.0 0.00 0.00 0.00 73 1016.2
20181022234008 41 265 0.0 0.0 0.00 0.00 0.00 70 1016.2
20181022233507 41 265 0.0 0.0 0.00 0.00 0.00 70 1016.2
20181022233013 42 266 0.0 0.0 0.00 0.00 0.00 69 1016.1
20181022232507 42 265 0.0 0.0 0.00 0.00 0.00 69 1016.1
20181022232007 42 266 0.0 0.0 0.00 0.00 0.00 69 1016.1
20181022231508 42 267 0.0 0.0 0.00 0.00 0.00 69 1015.9
20181022231008 42 267 0.0 0.0 0.00 0.00 0.00 69 1015.9
20181022230507 42 267 0.0 0.0 0.00 0.00 0.00 69 1015.9
20181022230007 42 267 0.0 0.0 0.00 0.00 0.00 68 1015.8
20181022225507 43 267 0.0 0.0 0.00 0.00 0.00 68 1015.8
20181022225008 43 267 0.0 0.0 0.00 0.00 0.00 69 1015.8
20181022224504 44 267 0.0 0.0 0.00 0.00 0.00 67 1016.1
20181022224004 44 267 0.0 0.0 0.00 0.00 0.00 66 1016.1
20181022223504 45 267 0.0 0.0 0.00 0.00 0.00 64 1016.1
20181022223003 45 267 0.0 0.0 0.00 0.00 0.00 65 1016.1
20181022222502 45 267 0.0 0.0 0.00 0.00 0.00 63 1016.1
20181022222001 46 268 0.0 0.0 0.00 0.00 0.00 63 1016.1
20181022221459 46 259 0.0 0.0 0.00 0.00 0.00 65 1015.8
20181022220957 46 259 0.0 0.0 0.00 0.00 0.00 64 1015.8
20181022220455 46 261 0.0 0.0 0.00 0.00 0.00 63 1015.8
20181022215953 47 262 0.0 0.0 0.00 0.00 0.00 61 1015.7
20181022215453 47 262 0.0 0.0 0.00 0.00 0.00 61 1015.7
20181022214952 47 269 0.0 0.0 0.00 0.00 0.00 60 1015.7
20181022214451 47 265 0.0 0.0 0.00 0.00 0.00 59 1015.7
20181022213950 47 266 0.0 1.0 0.00 0.00 0.00 59 1015.7
20181022213447 47 261 0.0 1.0 0.00 0.00 0.00 58 1015.7
20181022212947 47 265 0.0 3.0 0.00 0.00 0.00 57 1015.5
20181022212451 48 267 0.0 3.0 0.00 0.00 0.00 54 1015.5
20181022212447 48 266 0.0 3.0 0.00 0.00 0.00 56 1015.5
20181022211443 49 261 0.0 3.0 0.00 0.00 0.00 55 1015.5
20181022210944 49 266 0.0 1.0 0.00 0.00 0.00 54 1015.5
20181022210443 49 296 0.0 4.0 0.00 0.00 0.00 53 1015.5
20181022205943 49 269 0.0 4.0 0.00 0.00 0.00 54 1015.5
20181022205440 49 256 0.0 3.0 0.00 0.00 0.00 57 1015.5
20181022204939 49 243 0.0 2.0 0.00 0.00 0.00 56 1015.5
20181022204438 49 250 0.0 2.0 0.00 0.00 0.00 57 1015.5
20181022203933 49 274 0.0 0.0 0.00 0.00 0.00 56 1015.5
20181022203433 49 272 1.0 11.0 0.00 0.00 0.00 55 1015.5
20181022202942 51 281 1.0 7.0 0.00 0.00 0.00 54 1015.6
20181022202937 50 286 1.0 11.0 0.00 0.00 0.00 53 1015.6
20181022201930 51 268 1.0 7.0 0.00 0.00 0.00 54 1015.6
20181022201430 51 277 1.0 7.0 0.00 0.00 0.00 52 1015.7
20181022200929 51 271 2.0 9.0 0.00 0.00 0.00 54 1015.7
20181022200427 51 252 2.0 9.0 0.00 0.00 0.00 55 1015.7
20181022195927 51 252 2.0 10.0 0.00 0.00 0.00 54 1015.7
20181022195426 51 256 3.0 10.0 0.00 0.00 0.00 52 1015.7
20181022194921 51 261 2.0 11.0 0.00 0.00 0.00 53 1015.7
20181022194420 51 267 2.0 11.0 0.00 0.00 0.00 51 1015.6
20181022193915 51 234 0.0 7.0 0.00 0.00 0.00 51 1015.6
20181022193414 51 284 1.0 10.0 0.00 0.00 0.00 52 1015.6
20181022192919 51 278 1.0 9.0 0.00 0.00 0.00 55 1015.7
20181022192915 51 271 1.0 10.0 0.00 0.00 0.00 53 1015.7
20181022191914 51 278 3.0 10.0 0.00 0.00 0.00 52 1015.7
20181022191415 51 281 2.0 10.0 0.00 0.00 0.00 55 1015.7
20181022190915 52 274 1.0 12.0 0.00 0.00 0.00 55 1015.7
20181022190414 51 241 2.0 12.0 0.00 0.00 0.00 56 1015.7
20181022185913 51 215 2.0 9.0 0.00 0.00 0.00 56 1015.9
20181022185417 51 296 4.0 15.0 0.00 0.00 0.00 54 1015.9
20181022184913 51 253 3.0 15.0 0.00 0.00 0.00 56 1015.9
20181022184413 51 245 2.0 13.0 0.00 0.00 0.00 56 1015.9
20181022183912 51 281 3.0 17.0 0.00 0.00 0.00 56 1015.9
20181022183407 51 279 2.0 17.0 0.00 0.00 0.00 55 1015.9